Zurück zum Katalog

STARLINK-37152

AktivKommunikationSSO
NORAD 68616·PAYLOAD·🇺🇸 United States

Gestartet Apr 5, 2026 von Vandenberg Space Force Base

Loading…

Nächste Überflüge (nächste 24 Stunden)

TLE

AktuellSource: CelesTrak SupGP

Epoche: Sep 14, 2026, 21:40 UTC

1 68616C 26073Q   26257.90326389  .00087830  00000+0  27270-2 0  2579
2 68616  97.2851  96.0099 0001783  96.2115 271.2581 15.33388074    16

Verfolge STARLINK-37152 in Echtzeit mit AllMySat

Download on the App Store